Погода в Пудовке

Россия / Томская область     57°13′56″N   83°41′07″E
темп.,
°C
ветер,
м/с
пор.,
м/с
влажн.,
%
обл.,
%
осадки,
мм/ч
давл.,
гПа
погр.,
м
13 мая, чт
чт1301:00+10св00494 0.0 101310
04:00+9з225512 0.0 101312
07:00+10зсз2357100 0.0 1013108
10:00+13сз355176 0.0 1014538
13:00+16зсз3548100 0.0 10131780
16:00+15сз5560100 0.0 10141207
19:00+11сз467592 0.1 1015471
22:00+10зсз24799 0.0 1015176
14 мая, пт
пт1401:00+7сз411800 0.0 1015329
04:00+7сз4108489 0.0 1016587
07:00+6ссз586835 0.0 1018927
10:00+8ссз58445 0.0 10201180
13:00+11сз682924 0.0 10201471
16:00+13сз582584 0.0 10201690
19:00+12зсз583498 0.0 10201654
22:00+8ю1167100 0.4 102161
15 мая, сб
сб1501:00+9ююз4146694 0.6 1017507
04:00+9зюз6156562 0.1 1015515
07:00+11зюз5147682 0.8 1015485
10:00+17зюз57615 0.1 1014550
13:00+22зюз694878 0.1 10131260
16:00+24зюз61144100 0.0 10112042
19:00+14ююз378780 8.3 1011163
22:00+15з4993100 9.6 1011277
16 мая, вс
вс1601:00+14зюз3494100 17.6 101182
04:00+12зсз2495100 0.0 101281
07:00+13ссв359699 0.1 1012295
10:00+11ссв3594100 1.1 1014390
13:00+10ссв3690100 3.7 1015423
16:00+13ссв3477100 0.1 1016881
19:00+13ссз2571100 0.1 1017513
22:00+11ююз117692 0.0 101810
17 мая, пн
пн1701:00+10юз228294 0.0 101741
04:00+9ююз2589100 0.0 1017114
07:00+10ююз41088100 0.1 1016342
10:00+15ююз511737 0.1 1013629
13:00+22юз7105595 0.1 10091142
16:00+28зюз6144038 0.0 10063243
19:00+26з510395 0.0 1005541
22:00+19сз6146389 0.1 1006493